Погода в Туенкуанге

Вьетнам     21°51′06″N   105°12′45″E
темп.,
°C
ветер,
м/с
пор.,
м/с
влажн.,
%
обл.,
%
осадки,
мм/ч
давл.,
гПа
погр.,
м
13 апреля, вт
вт1301:00+24в139198 0.1 1012168
04:00+23в1292100 0.0 101199
07:00+23в1191100 0.1 101378
10:00+25юв1285100 0.3 1014428
13:00+27св127682 0.6 1011617
16:00+29вюв336467 0.3 10081173
19:00+25в118482 0.6 100920
22:00+24всв1190100 0.4 101120
14 апреля, ср
ср1401:00+23всв1295100 1.1 101063
04:00+22всв1295100 0.1 101085
07:00+23всв1294100 0.2 1012124
10:00+26юв028293 0.2 1012639
13:00+27ююв127581 0.8 1010771
16:00+30вюв236143 0.4 10061228
19:00+25ююв118499 0.5 100829
22:00+24вюв1288100 0.0 101046
15 апреля, чт
чт1501:00+23в1194100 0.1 100925
04:00+22всв1194100 0.1 100931
07:00+23вюв1189100 0.2 101097
10:00+25всв018499 0.3 1012382
13:00+29в1267100 0.8 1009973
16:00+28всв137488 0.5 1007468
19:00+25юв118521 0.9 100937
22:00+24в119298 0.0 101141
16 апреля, пт
пт1601:00+23в1293100 0.6 101167
04:00+22св1197100 0.5 101143
07:00+23всв1295100 1.3 101381
10:00+23в1292100 1.4 1015134
13:00+24в1386100 1.8 1013373
16:00+25св1381100 0.1 1010512
19:00+23ссз1190100 0.1 101212
22:00+23вюв1190100 0.0 101418
17 апреля, сб
сб1701:00+23ссв1192100 0.2 101322
04:00+22в1194100 0.8 101325
07:00+23в1193100 0.9 1015121
10:00+23св0193100 2.6 101672
13:00+23в1193100 5.2 1014184
16:00+25в1281100 0.8 1012678
19:00+23в1194100 1.9 101430
22:00+22всв1296100 0.5 101661